[ show orbit diagram ]
Orbital Elements at Epoch 2459200.5 (2020-Dec-17.0) TDB
Reference: JPL 29 (heliocentric ecliptic J2000)
Element | Value | Uncertainty (1-sigma) | Units |
e | .2484882024502395 | 1.616e-08 | |
a | 3.946659433252091 | 3.1177e-08 | au |
q | 2.965961124999998 | 6.1513e-08 | au |
i | 12.10281488733894 | 3.0269e-07 | deg |
node | 269.6391350598403 | 3.8538e-06 | deg |
peri | 115.1783219113936 | 8.607e-06 | deg |
M | 271.0341351696192 | 5.948e-06 | deg |
tp | 2459908.223812687724 (2022-Nov-24.72381269) | 5.3446e-05 | TDB |
period | 2863.801448491916 7.84 | 3.3935e-05 9.291e-08 | d yr |
n | .1257070388694638 | 1.4896e-09 | deg/d |
Q | 4.927357741504183 | 3.8925e-08 | au |
|
| | Orbit Determination Parameters
Additional Information
|
[ show covariance matrix ]
Physical Parameter Table
Parameter |
Symbol |
Value |
Units |
Sigma |
Reference |
Notes |
absolute magnitude |
H |
12.04 |
|
n/a |
E2021B10 |
|
diameter |
diameter |
16.739 |
km |
1.036 |
urn:nasa:pds:neowise_diameters_albedos::2.0[hildas] (http://adsabs.harvard.edu/abs/2012ApJ...744..197G) |
|
rotation period |
rot_per |
4.8 |
h |
n/a |
LCDB (Rev. 2020-October); Warner et al., 2009 |
Result based on less than full coverage, so that the period may be wrong by 30 percent or so. Published Reference List: [Hasegawa, S.; Kuroda, D.; Kitazato, K.; Kasuga, T.; et al. (2018) Pub. Astron. Soc. Japan 70, A114.] |
geometric albedo |
albedo |
0.076 |
|
0.016 |
urn:nasa:pds:neowise_diameters_albedos::2.0[hildas] (http://adsabs.harvard.edu/abs/2012ApJ...744..197G) |
|
|
11739 Baton Rouge | Discovered 1998 Sept. 25 by W. R. Cooney, Jr., and M. Collier at Baton Rouge. |
Baton Rouge, the Louisiana state capital, is located on the banks of the Mississippi river and derives its name, French for "red stick", from an Indian marker at the site seen by a French expedition in 1699. The city is home to the Highland Road Park Observatory, where this minor planet was discovered. |
NOTE: some special characters may not display properly (any characters within {} are an attempt to place the proper accent above a character) |
Reference: 20000124/MPCPages.arc | Last Updated: 2013-03-29 |
|
[ show close-approach data ]
Alternate Designations
1998 SG27 = 1976 YA2 = 1984 YO4 = 1998 QC65 |
|
|
|